Location: Warszawa
(52.2322°N, 21.0083°E)
Time: 20:03:31
(UTC+02:00)

ISS - Pass Details

Date: 30 March 2019
Orbit: 408 x 410 km, 51.6° (Epoch: 25 April)

Event Time Altitude Azimuth Distance (km) Brightness Sun altitude
Rises 19:14:54 0° 270° (W) 2,337 1.5 -11.0°
Reaches altitude 10° 19:17:00 10° 269° (W) 1,475 0.2 -11.3°
Maximum altitude 19:20:18 82° 182° (S) 418 -3.9 -11.8°
Enters shadow 19:22:26 20° 96° (E) 1,005 -2.4 -12.1°
